This demonstration page uses our WeatherBlox Daily Observations layout. Learn more.

Left ArrowRight Arrow

39.01783, -85.05884

Hourly Observations for March 6, 2017

Temp ( °F °C ) Dew Point ( °F °C ) Humidity (%) Winds ( mph kmh ) Pressure ( in mb ) Visibility ( mi km ) Precip ( " mm )
12:52 am 00:52 Cloudy with Light Rain 56 13.3 38 3.3 51 51 SW 10 17 30.24 1024 10 16 0.00 0.03
1:52 am 01:52 Cloudy 55 12.8 39 3.9 55 55 SSW 7 11 30.25 1024 10 16 0.00 0.03
2:52 am 02:52 Cloudy 55 12.8 38 3.3 53 53 SSW 7 11 30.23 1024 10 16 0.00 0.00
3:52 am 03:52 Cloudy 54 12.2 38 3.3 55 55 S 8 13 30.21 1023 10 16 0.00 0.00
4:52 am 04:52 Cloudy 54 12.2 38 3.3 55 55 SSW 8 13 30.22 1023 10 16 0.00 0.00
5:52 am 05:52 Cloudy 54 12.2 44 6.7 69 69 SSW 8 13 30.22 1023 10 16 0.00 0.00
6:52 am 06:52 Cloudy with Light Rain 53 11.7 44 6.7 72 72 S 9 15 30.22 1024 10 16 0.00 0.03
7:31 am 07:31 Cloudy with Light Rain 51 10.6 46 7.8 83 83 S 12 19 30.27 1025 9 14 0.01 0.25
7:52 am 07:52 Cloudy with Light Rain 50 10 46 7.8 86 86 S 12 19 30.23 1024 7 11 0.01 0.25
8:19 am 08:19 Cloudy with Light Rain 50 10 47 8.3 89 89 S 12 19 30.27 1025 3 4 0.01 0.25
8:52 am 08:52 Cloudy with Light Rain 50 10 48 8.9 93 93 S 13 20 30.23 1024 3 4 0.01 0.25
9:00 am 09:00 Cloudy with Drizzle 50 10 48 9 94 94 S 13 20 30.27 1025 3 4 0.00 0.00
9:37 am 09:37 Cloudy with Drizzle 50 10 48 8.9 93 93 S 16 26 30.24 1024 3 5 0.01 0.25
9:52 am 09:52 Cloudy with Drizzle 50 10 49 9.4 96 96 S 16 26 30.21 1023 3 5 0.01 0.25
10:14 am 10:14 Cloudy with Mist and Fog 51 10.6 49 9.4 92 92 S 16 26 30.24 1024 5 8 0.00 0.03
10:52 am 10:52 Cloudy 53 11.7 49 9.4 86 86 S 17 28 30.19 1022 7 11 0.00 0.03
11:52 am 11:52 Cloudy 56 13.3 49 9.4 77 77 S 17 28 30.17 1022 10 16 0.00 0.00
12:31 pm 12:31 Cloudy with Light Rain 56 13.3 49 9.4 77 77 SSW 16 26 30.18 1022 8 13 0.00 0.03
12:52 pm 12:52 Cloudy with Light Rain 55 12.8 50 10 83 83 S 16 26 30.15 1021 3 5 0.00 0.03
1:31 pm 13:31 Cloudy with Light Rain 55 12.8 52 11.1 90 90 S 18 30 30.15 1021 3 5 0.01 0.25
1:52 pm 13:52 Cloudy with Light Rain 55 12.8 52 11.1 90 90 S 18 30 30.11 1020 3 5 0.02 0.51
2:52 pm 14:52 Cloudy with Light Rain 56 13.3 52 11.1 87 87 S 18 30 30.09 1019 9 14 0.02 0.51
3:52 pm 15:52 Cloudy with Light Rain 56 13.3 53 11.7 90 90 S 15 24 30.09 1019 10 16 0.01 0.25
4:52 pm 16:52 Cloudy 57 13.9 52 11.1 83 83 S 17 28 30.06 1018 10 16 0.00 0.03
5:52 pm 17:52 Cloudy with Light Rain 58 14.4 51 10.6 78 78 S 13 20 30.06 1018 10 16 0.00 0.03
6:52 pm 18:52 Cloudy with Light Rain 57 13.9 51 10.6 81 81 S 14 22 30.05 1018 10 16 0.01 0.25
7:52 pm 19:52 Cloudy with Light Rain 57 13.9 52 11.1 83 83 S 14 22 30.06 1018 10 16 0.00 0.03
8:52 pm 20:52 Cloudy with Light Rain 56 13.3 53 11.7 90 90 S 14 22 30.04 1017 10 16 0.07 1.78
9:52 pm 21:52 Cloudy 57 13.9 53 11.7 87 87 S 15 24 30.01 1016 10 16 0.00 0.03
10:52 pm 22:52 Mostly Cloudy 58 14.4 50 10 75 75 S 18 30 29.97 1015 10 16 0.00 0.00
11:52 pm 23:52 Mostly Cloudy 59 15 49 9.4 69 69 S 21 33 29.93 1014 10 16 0.00 0.00

Powered by AerisWeather